This is the latest recevied weather packets stored in our database for station/object K4IR. If no packets are shown the sender has not sent any weather packets the latest 10 day(s).
| Time | Temp. | Humidity | Pressure | Rain* | Wind** | Luminosity | Snow |
|---|---|---|---|---|---|---|---|
| 1787670128 | 26.67° C | 75% | 1018 hPa | 0 mm | - | 129 W/m² | - |
| 1787669522 | 26.67° C | 77% | 1017.9 hPa | 0 mm | - | 139 W/m² | - |
| 1787668919 | 26.67° C | 76% | 1017.6 hPa | 0 mm | - | 153 W/m² | - |
| 1787668317 | 25.56° C | 78% | 1017.6 hPa | 0 mm | - | 214 W/m² | - |
| 1787667712 | 25.56° C | 78% | 1017.6 hPa | 0 mm | - | 221 W/m² | - |
| 1787667109 | 25.56° C | 81% | 1017.9 hPa | 0 mm | - | 177 W/m² | - |
| 1787666504 | 25° C | 80% | 1017.4 hPa | 0 mm | - | 174 W/m² | - |
| 1787665901 | 24.44° C | 81% | 1017.4 hPa | 0 mm | - | 150 W/m² | - |
| 1787665296 | 24.44° C | 83% | 1017.5 hPa | 0 mm | - | 204 W/m² | - |
| 1787664695 | 24.44° C | 83% | 1017.7 hPa | 0 mm | - | 174 W/m² | - |
| 1787664095 | 24.44° C | 84% | 1017.7 hPa | 0 mm | - | 242 W/m² | - |
| 1787663490 | 23.89° C | 85% | 1017.5 hPa | 0 mm | - | 120 W/m² | - |
| 1787662888 | 23.33° C | 86% | 1017.5 hPa | 0 mm | - | 128 W/m² | - |
| 1787662284 | 22.78° C | 88% | 1017.5 hPa | 0 mm | - | 385 W/m² | - |
| 1787661680 | 22.78° C | 90% | 1017.3 hPa | 0 mm | - | 64 W/m² | - |
| 1787661078 | 21.67° C | 93% | 1017.4 hPa | 0 mm | - | 104 W/m² | - |
| 1787660473 | 21.11° C | 97% | 1017.5 hPa | 0 mm | - | 85 W/m² | - |
| 1787659874 | 21.11° C | 98% | 1017.1 hPa | 0 mm | - | 63 W/m² | - |
| 1787659273 | 20.56° C | 99% | 1016.9 hPa | 0 mm | - | 48 W/m² | - |
| 1787658672 | 20.56° C | 99% | 1017 hPa | 0 mm | - | 39 W/m² | - |
| 1787658069 | 20.56° C | 99% | 1016.8 hPa | 0 mm | - | 33 W/m² | - |
| 1787657466 | 20.56° C | 99% | 1016.9 hPa | 0 mm | - | 28 W/m² | - |
| 1787656862 | 20.56° C | 99% | 1016.7 hPa | 0 mm | - | 23 W/m² | - |
| 1787656258 | 20.56° C | 99% | 1016.5 hPa | 0 mm | - | 18 W/m² | - |
| 1787655656 | 20.56° C | 99% | 1016.6 hPa | 0 mm | - | 10 W/m² | - |
* Rain latest hour (hover to see other rain measurements)
** Current wind speed in m/s (hover to see current wind gust speed)